Regional Weather Roundup
Issued by NWS

Home | Current Version | Previous Version | Graphics & Text | Print | Product List | Glossary Off
Versions: 1 2 3 4 5 6 7 8 9 10 11 12 13 14 15 16 17 18 19 20 21 22 23 24 25 26 27 28 29 30 31 32 33 34 35 36 37 38 39 40 41 42 43 44 45 46 47 48 49 50

000
ASUS43 KMKX 220159
RWRWI

WISCONSIN REGIONAL WEATHER ROUNDUP
NATIONAL WEATHER SERVICE MILWAUKEE/SULLIVAN WI
900 PM CDT SAT APR 21 2018

NOTE: "FAIR" INDICATES FEW OR NO CLOUDS BELOW 12,000 FEET WITH NO
SIGNIFICANT WEATHER AND/OR OBSTRUCTIONS TO VISIBILITY.

WIZ001-002-006>008-014>016-023>028-220300-
NORTHWEST WISCONSIN

CITY           SKY/WX    TMP DP  RH WIND       PRES   REMARKS
SUPERIOR ARPT  FAIR      37  26  64 NW3       30.33R
ASHLAND        FAIR      33  27  78 W3        30.36R
HAYWARD        FAIR      40  19  43 CALM      30.35R
SIREN          FAIR      44  19  36 CALM      30.35R
CUMBERLAND     FAIR      45  10  24 CALM      30.35R
RICE LAKE      FAIR      42  24  48 CALM      30.36R
CHETEK         FAIR      42  23  46 CALM      30.35R
LADYSMITH      FAIR      43  25  48 CALM      30.36R
EAU CLAIRE     NOT AVBL
MENOMONIE      FAIR      51  31  47 CALM      30.35R
NEW RICHMOND   FAIR      45  30  55 CALM      30.35R
OSCEOLA        FAIR      44  27  52 E5        30.37R
$$

WIZ003>005-009-010-017-018-220300-
NORTH CENTRAL WISCONSIN

CITY           SKY/WX    TMP DP  RH WIND       PRES   REMARKS
MANITOWISH WTR FAIR      46  17  32 N3        30.33R
ARBOR VITAE    FAIR      43  21  41 CALM      30.33R
WOODRUFF       FAIR      43  21  41 CALM      30.33R
RHINELANDER    FAIR      42  22  44 SW6       30.34R
EAGLE RIVER    FAIR      38  11  33 CALM      30.32R
LAND O LAKES   FAIR      47  16  29 NE5       30.36R
PHILLIPS       FAIR      38  23  56 CALM      30.34R
TOMAHAWK       FAIR      40  22  48 CALM      30.35R
MEDFORD        FAIR      44  26  50 CALM      30.35R
MERRILL          N/A     43  27  54 CALM      30.36R
$$

WIZ029-030-035-036-043>047-220300-
CENTRAL WISCONSIN

CITY           SKY/WX    TMP DP  RH WIND       PRES   REMARKS
WAUSAU         FAIR      45  28  51 CALM      30.35R
MOSINEE        CLEAR     46  25  42 CALM      30.37R
MARSHFIELD     FAIR      47  28  47 CALM      30.35R
STEVENS POINT  FAIR      42  26  53 CALM      30.37R
WAUPACA        FAIR      46  29  52 CALM      30.38R
WAUTOMA        FAIR      39  31  72 CALM      30.38R
WISC RAPIDS    FAIR      40  24  53 E3        30.37R
CAMP DOUGLAS   FAIR      42  32  66 CALM      30.36S
$$

WIZ011>013-019>022-031-037>040-048>050-220300-
NORTHEAST WISCONSIN

CITY           SKY/WX    TMP DP  RH WIND       PRES   REMARKS
ANTIGO         FAIR      40  28  61 CALM      30.36R
SHAWANO        FAIR      46  22  38 CALM      30.36R
OCONTO         FAIR      44  22  41 S3        30.36R
STURGEON BAY   FAIR      44  22  41 S8        30.38R
GREEN BAY      FAIR      43  28  55 CALM      30.37R
MANITOWOC      FAIR      39  26  59 CALM      30.39R
APPLETON       PTCLDY    45  25  45 S5        30.35R
CLINTONVILLE   FAIR      44  24  45 CALM      30.36R
OSHKOSH        FAIR      42  32  67 SW3       30.37R
$$

WIZ032>034-041-042-053>061-220300-
SOUTHWEST WISCONSIN

CITY           SKY/WX    TMP DP  RH WIND       PRES   REMARKS
LA CROSSE      CLOUDY    53  32  44 SE6       30.36R
SPARTA         FAIR      43  31  62 CALM      30.37S
VIROQUA        CLOUDY    48  33  54 CALM      30.36R
BOSCOBEL       FAIR      47  35  63 CALM      30.38R
PRAIRIE DU CHI FAIR      50  33  51 CALM      30.37R
PLATTEVILLE    FAIR      49  38  67 SE3       30.37R
$$

WIZ056-057-062-063-064-067-068-220300-
SOUTH CENTRAL WISCONSIN

CITY           SKY/WX    TMP DP  RH WIND       PRES   REMARKS
REEDSBURG      CLOUDY    48  32  54 CALM      30.37R
BARABOO/DELLS  CLOUDY    45  27  49 CALM      30.37S
LONE ROCK      FAIR      49  36  61 CALM      30.37R
MINERAL POINT  FAIR      50  34  53 CALM      30.37R
MADISON        MOCLDY    48  34  58 CALM      30.37S
MIDDLETON      CLOUDY    51  32  49 E3        30.38R
WATERTOWN      CLOUDY    42  32  67 CALM      30.37S
MONROE         FAIR      48  32  53 E3        30.37R
JANESVILLE     MOCLDY    48  32  53 CALM      30.36S
$$

WIZ051-052-058>065-066-070>072-220300-
SOUTHEAST WISCONSIN

CITY           SKY/WX    TMP DP  RH WIND       PRES   REMARKS
MILWAUKEE      MOCLDY    46  17  31 CALM      30.39S
WAUKESHA       MOCLDY    45  21  39 CALM      30.39R
MILWAUKEE/TIMM CLOUDY    46  10  23 CALM      30.40R
RACINE         MOCLDY    43  21  41 CALM      30.40S
BURLINGTON     FAIR      45  24  44 CALM      30.38S
KENOSHA        FAIR      42  24  49 CALM      30.39R
FOND DU LAC    FAIR      38  28  67 SW3       30.38R
SHEBOYGAN      FAIR      43  27  53 S3        30.38R
WEST BEND      FAIR      43  19  39 CALM      30.39R
JUNEAU         FAIR      43  32  63 CALM      30.39R
$$

LSZ147-162-220300-
LAKE SUPERIOR

STATION/POSITION TIME  TEMP    WIND        PRES    WAVE
                       AIR SEA DIR/SP/G            HT/PER
                 (UTC) (F)     (DEG/KT/KT) (MB)    (FT/S)
DEVILS ISLAND    0100   47     120/  5/  6 1027.8F
SAXON HARBOR     0130   36     200/  1/  2 1026.8S
$$

LMZ867-665-643>646-220300-
LAKE MICHIGAN

STATION/POSITION TIME  TEMP    WIND        PRES    WAVE
                       AIR SEA DIR/SP/G            HT/PER
                 (UTC) (F)     (DEG/KT/KT) (MB)    (FT/S)
NORTHPORT PIER   0140   41                 1028.1R
KEWAUNEE LAKESHO 0130   40     180/  2/  2 1027.7R
SHEBOYGAN LAKESH 0100   42     180/  4/  5 1029.0R
PORT WASHINGTON  0140   44     260/  3/  3 1029.8R
MILWAUKEE LAKESH 0130   42        CALM       N/A
KENOSHA   LAKESH 0100   43                 1028.4
$$

TC  - TEMPERATURE IN CELSIUS
VSB - VISIBILITY IN STATUTE MILES
WCI - WIND CHILL INDEX
HX  - HEAT INDEX





USA.gov is the U.S. government's official web portal to all federal, state and local government web resources and services.